GFSFLT1_2pvu_pres_009.txt.gz
Presure
133 212 233 232 219 236 218 222 230 225 210 207 209 221 204 186 183 175 186 193 183 190 191 187 185 133 180 198 109 197 201 203
232 230 217 231 230 216 195 213 202 204 211 216 200 184 183 182 185 190 183 184 191 184 185 200 176 201 133 175 190 201 194 196
232 215 214 228 204 215 203 206 204 208 193 194 182 177 186 184 196 191 194 194 190 190 186 199 112 195 182 204 195 196 201 203
219 225 218 212 210 205 204 204 204 209 198 188 177 179 187 194 192 188 191 191 186 202 200 195 199 161 174 198 196 205 205 209
211 215 201 203 200 197 203 207 194 181 180 182 186 193 197 189 182 184 186 182 195 194 179 200 205 204 213 206 140 130 120 118
199 192 195 201 198 202 203 190 184 179 185 194 190 193 191 184 180 188 181 198 196 189 182 197 205 197 212 213 219 227 231 237
194 191 192 190 197 196 188 189 187 182 191 186 192 189 180 183 184 185 194 201 189 206 201 202 210 220 227 232 236 237 243 239
197 193 191 188 186 185 188 187 198 191 195 191 187 179 187 185 196 199 190 197 206 213 210 218 222 230 243 241 251 259 267 277
192 191 186 187 190 185 192 186 187 188 184 183 186 189 189 203 193 203 207 204 207 212 226 228 250 256 264 272 297 305 319 305
197 191 189 188 198 196 190 189 184 183 111 185 97 106 131 190 203 200 211 215 225 236 242 248 257 270 284 284 293 332 327 324
189 191 198 196 188 190 183 186 186 184 184 100 98 136 200 200 194 227 236 221 235 243 246 289 305 313 349 341 338 337 336 366
203 201 189 185 175 179 184 184 187 183 184 117 196 202 196 210 213 231 226 239 250 286 295 279 348 346 344 344 416 438 425 416
193 190 170 170 180 185 189 183 189 172 197 194 200 199 214 212 226 238 250 251 286 283 300 351 347 455 450 431 415 406 403 399
183 181 184 189 186 179 183 189 183 199 194 206 204 215 217 243 252 253 280 322 358 360 347 458 443 446 445 433 420 402 397 399
185 191 185 178 182 185 189 198 195 201 206 205 211 234 246 255 257 325 334 351 343 422 442 510 497 481 457 430 411 396 387 373
183 183 182 182 181 192 202 203 203 211 207 224 251 241 260 258 292 334 354 341 442 454 437 407 397 442 416 398 381 366 360 355
177 180 182 182 197 201 202 209 213 224 240 235 241 263 252 309 334 348 360 436 475 427 410 398 425 404 388 366 352 348 351 351
181 184 189 203 199 195 217 223 238 233 226 244 259 251 313 331 339 450 443 454 433 440 428 404 385 367 355 348 347 345 351 361
187 201 202 195 206 218 215 223 228 238 247 248 252 295 329 350 441 445 490 475 459 418 393 374 356 350 346 341 343 349 369 441

GFSFLT1_2pvu_pres_012.txt.gz
Presure
199 234 133 134 164 229 213 212 210 210 218 213 204 210 212 208 198 216 215 192 176 185 185 193 192 185 185 185 185 190 121 184
128 162 136 226 233 218 214 223 210 224 206 208 200 202 207 207 208 207 180 179 185 190 194 190 183 182 186 184 196 198 206 130
164 200 234 224 214 207 220 217 225 199 207 204 202 199 207 204 185 180 185 189 190 195 192 185 189 190 195 200 136 176 191 193
211 225 222 207 211 221 216 133 209 200 199 197 201 202 196 190 189 192 188 197 201 198 196 197 198 204 202 195 195 187 208 208
228 205 212 218 215 205 204 198 195 196 200 204 195 193 190 190 188 189 189 192 193 195 203 208 200 195 201 205 207 217 235 232
214 214 213 203 191 194 195 198 200 194 186 197 189 193 196 189 199 191 194 109 162 205 200 203 204 213 207 217 218 225 232 231
216 205 202 198 197 202 200 193 192 191 189 189 200 192 190 186 190 160 97 138 131 197 201 211 206 212 219 220 228 240 255 260
200 197 195 189 189 190 192 198 193 189 196 201 188 184 188 189 121 162 162 197 205 208 210 211 217 225 237 252 257 261 276 286
206 191 185 186 187 191 186 187 188 196 176 176 186 195 195 193 190 194 204 210 205 212 216 217 230 255 253 268 272 307 321 350
208 198 197 188 182 186 205 209 188 182 183 192 185 185 90 191 201 210 206 215 221 232 243 243 255 264 267 293 310 329 366 370
192 202 205 214 204 187 190 187 187 192 190 188 178 188 189 203 204 204 211 231 242 241 260 262 251 274 318 360 356 451 485 481
209 204 192 197 198 181 188 198 197 182 187 189 183 198 205 204 212 219 222 241 246 256 266 260 302 352 367 468 451 451 429 482
203 201 198 173 182 191 182 188 181 188 185 189 197 204 197 215 222 227 244 256 262 276 272 316 373 455 429 432 438 422 443 435
207 171 169 181 190 191 187 185 181 192 200 204 206 197 219 227 230 247 254 267 257 310 350 380 455 445 428 433 439 414 398 390
204 201 196 191 191 186 180 187 184 197 204 201 205 215 225 231 251 250 267 267 328 371 442 449 447 439 490 450 403 382 365 356
197 196 193 186 178 183 189 188 199 201 205 207 217 218 244 260 252 264 266 334 370 471 450 455 463 495 433 394 369 355 349 346
194 188 182 183 188 193 194 204 204 204 213 221 237 241 252 253 268 268 385 387 462 490 415 489 498 411 383 363 351 346 341 344
191 183 183 189 189 194 196 201 204 209 232 242 246 257 254 269 281 397 485 459 435 408 396 383 382 375 358 349 346 341 338 350
187 189 185 190 193 204 207 208 227 228 232 246 254 254 272 264 403 489 462 430 404 391 379 380 364 358 348 342 342 336 348 348

GFSFLT1_2pvu_pres_015.txt.gz
Presure
209 240 236 248 238 225 189 197 204 216 219 213 208 217 214 209 217 200 205 198 192 203 211 199 185 183 188 184 184 191 191 193
195 233 234 226 230 127 230 203 208 206 205 204 208 217 212 217 200 185 195 203 205 197 192 193 198 188 192 198 190 184 188 199
223 231 225 216 214 214 205 204 205 208 205 204 211 205 193 184 191 198 187 194 193 196 196 197 198 201 197 194 195 198 194 195
220 175 214 211 222 211 232 222 211 213 199 206 187 187 187 195 195 193 187 188 202 192 185 201 145 199 201 204 206 213 217 217
218 220 222 226 219 214 205 204 204 204 192 186 189 195 191 197 192 188 188 200 187 193 196 143 97 206 205 212 214 214 217 223
220 224 231 236 227 211 213 212 195 192 183 189 192 197 193 193 193 204 199 194 197 201 99 198 203 206 216 206 210 229 229 238
238 235 233 233 220 218 219 209 200 196 201 197 192 193 195 201 205 192 189 197 203 198 196 203 207 213 205 218 233 247 258 267
207 210 206 209 208 207 203 197 194 193 191 193 203 209 197 192 198 187 189 198 194 195 203 210 210 207 221 245 260 255 273 265
207 198 188 189 190 192 194 195 200 210 212 202 195 185 195 194 192 184 189 190 194 207 212 212 232 240 263 261 272 268 275 291
197 206 210 209 209 208 207 202 193 192 202 182 187 201 194 186 187 185 190 203 207 215 216 251 261 268 277 271 280 293 330 369
199 201 212 211 208 206 209 208 177 174 187 199 190 183 184 188 191 195 209 212 215 228 248 264 256 267 268 293 376 448 463 452
196 195 189 183 213 208 205 203 201 197 188 182 182 186 194 200 206 207 206 215 246 241 252 272 270 272 327 453 448 462 440 454
198 191 174 208 212 203 203 195 189 188 184 183 193 194 199 204 215 216 234 242 239 271 268 268 279 466 465 451 480 423 404 488
192 200 192 195 193 211 204 198 192 184 188 194 197 200 214 217 220 237 247 267 266 271 267 404 489 476 454 480 414 450 453 397
233 209 196 194 205 204 193 191 191 192 194 205 203 211 219 225 235 244 269 270 258 310 444 499 473 449 409 396 413 384 376 365
199 216 201 206 198 187 187 192 194 203 204 205 225 221 226 229 245 264 267 249 359 448 498 466 428 402 390 386 372 365 356 354
201 200 203 194 183 190 193 203 202 203 227 225 217 230 238 239 261 267 243 406 458 492 466 422 391 369 387 368 358 351 347 347
206 198 185 191 188 195 201 195 210 221 216 220 228 242 234 258 263 254 414 444 481 461 424 387 368 390 371 360 350 341 346 342
187 190 198 195 200 202 206 209 218 214 226 228 229 234 261 274 270 427 443 483 461 423 385 369 353 374 363 354 337 343 336 353

GFSFLT1_2pvu_pres_018.txt.gz
Presure
217 219 230 220 230 240 232 226 217 209 203 183 215 217 203 206 210 210 207 211 193 194 193 192 193 189 193 184 200 182 184 192
219 244 237 228 185 218 210 222 226 235 209 221 204 206 206 211 210 202 195 193 188 187 192 197 197 193 193 197 191 190 192 138
231 225 158 202 236 244 229 221 208 206 209 212 213 212 204 203 203 201 190 186 190 191 193 193 199 194 193 198 186 182 172 175
142 219 189 224 215 207 211 214 214 217 217 211 203 201 206 194 189 187 189 192 188 193 198 199 185 187 195 146 192 195 200 198
218 185 220 219 215 216 223 220 217 219 218 212 201 202 196 192 190 190 189 189 196 200 187 188 195 194 196 195 197 200 216 214
238 245 241 237 231 222 216 213 216 205 201 204 205 197 190 185 191 194 203 209 192 184 193 202 197 198 200 204 213 216 218 217
213 206 208 207 208 203 199 193 190 195 196 197 201 206 207 208 203 190 185 185 194 205 200 197 200 199 206 209 217 218 219 267
205 203 197 189 191 215 215 216 219 220 215 210 205 205 206 205 191 189 200 205 194 199 195 200 203 205 217 216 231 272 277 282
199 197 198 198 196 201 202 202 200 197 212 214 214 213 208 205 202 196 200 192 192 199 200 205 206 217 236 255 285 271 291 301
195 195 194 201 199 203 199 199 189 201 203 206 208 207 205 204 197 192 191 196 202 201 211 218 211 239 264 285 289 290 291 443
201 201 197 193 200 193 205 197 201 202 199 195 209 199 191 190 189 191 201 204 207 224 230 239 261 272 279 291 281 400 491 472
193 189 190 227 225 223 229 229 202 193 194 201 188 187 190 197 203 197 200 221 228 254 256 253 278 273 290 305 494 491 460 434
220 227 227 228 226 233 185 218 205 203 198 187 186 193 202 196 209 207 218 240 251 264 270 248 284 302 317 496 466 435 408 391
220 223 233 225 220 207 200 204 198 188 197 195 197 200 211 211 216 228 245 249 262 274 250 271 303 435 490 459 420 392 380 387
218 237 232 221 214 208 194 185 188 197 201 200 201 214 215 224 234 242 248 253 246 248 271 336 481 481 441 410 383 368 391 380
207 222 221 211 202 186 188 182 190 208 197 202 215 217 220 225 243 246 249 262 247 268 338 451 467 440 402 376 360 359 379 370
220 211 204 203 193 189 191 186 207 202 215 216 214 223 213 210 248 245 216 240 279 294 473 460 434 399 373 356 384 373 371 352
203 204 198 193 199 198 193 202 205 214 211 218 225 208 206 249 258 257 249 294 330 333 457 441 399 380 363 360 377 374 351 352
198 196 193 190 187 206 201 208 194 208 216 221 222 215 246 254 246 265 295 323 339 463 439 406 380 365 356 369 371 354 347 335

GFSFLT1_2pvu_pres_021.txt.gz
Presure
217 216 214 218 219 222 232 233 222 164 216 177 211 211 201 222 208 207 209 203 202 199 206 221 194 195 196 189 192 193 199 190
222 224 222 222 234 222 225 226 228 155 150 218 215 218 199 206 206 207 207 207 204 202 196 195 197 193 192 193 199 198 211 191
215 220 232 226 224 221 225 178 224 214 206 207 211 213 213 215 215 211 210 204 197 197 197 193 193 197 202 204 202 186 194 195
225 224 229 224 156 208 217 219 222 225 228 227 225 211 209 195 191 188 191 192 195 199 202 203 202 202 188 191 195 198 202 194
226 220 230 238 241 239 229 219 206 203 203 200 193 192 195 206 207 207 207 206 205 206 205 203 203 207 203 203 204 193 202 208
232 226 215 209 202 201 204 202 195 190 208 207 204 201 198 187 190 211 211 210 213 213 206 203 201 198 193 200 205 212 214 211
204 202 201 200 194 193 194 196 198 199 200 204 202 202 201 194 195 194 194 196 208 208 202 195 194 201 210 210 207 213 221 230
195 200 206 202 198 199 198 197 199 196 191 199 197 193 198 202 202 199 203 209 189 194 192 201 204 203 207 215 217 241 266 275
199 199 198 196 204 204 204 202 195 200 234 239 239 241 238 202 208 206 194 196 193 197 204 205 210 205 233 256 269 269 262 281
192 194 201 198 193 198 237 238 238 234 233 232 224 218 205 199 191 196 201 199 199 195 196 211 210 252 262 268 247 291 313 332
199 194 196 215 221 220 235 233 229 230 217 208 203 198 183 181 189 201 201 194 197 201 208 219 254 263 245 256 280 312 319 346
205 211 210 211 210 215 222 240 229 209 209 202 190 183 190 183 197 196 195 200 213 240 246 254 264 237 260 283 293 352 473 447
203 193 204 203 203 204 221 217 207 210 199 195 195 198 185 192 194 193 221 234 232 257 265 264 253 260 275 304 453 464 441 407
199 205 200 197 200 214 208 204 197 191 193 191 189 185 196 200 189 217 228 244 255 258 262 243 244 264 337 351 464 436 400 383
199 201 195 219 218 202 197 199 192 199 185 188 201 217 216 219 212 232 245 246 253 246 249 243 263 329 354 458 435 403 383 371
211 213 214 207 205 200 194 201 193 188 189 203 214 211 227 222 232 246 244 253 247 255 275 299 371 362 455 440 404 382 368 363
208 211 226 197 204 194 195 202 184 192 211 209 213 223 199 225 242 242 249 222 232 263 277 281 358 459 437 405 381 366 366 380
206 211 190 206 201 194 197 189 199 211 218 220 217 217 228 239 245 252 253 232 241 314 283 336 423 445 415 386 374 360 368 374
203 221 211 209 191 190 195 198 211 211 214 217 218 226 238 250 240 254 230 249 301 277 333 333 397 427 396 370 356 363 373 361

GFSFLT1_2pvu_pres_024.txt.gz
Presure
203 205 209 124 192 213 206 218 214 213 217 219 211 165 208 198 214 198 198 204 212 215 208 196 194 197 199 201 202 204 206 209
223 193 225 222 220 216 215 209 213 226 217 134 204 206 233 205 208 213 217 231 205 190 192 202 205 211 208 206 208 206 207 208
216 215 213 215 217 222 225 221 222 235 233 226 223 222 223 217 215 199 197 191 199 207 201 189 194 211 212 207 208 206 205 204
214 216 221 219 219 223 222 221 231 228 221 212 204 198 200 199 188 195 198 196 200 203 203 199 197 195 196 200 207 203 195 193
218 226 227 221 230 226 217 210 204 197 201 202 203 192 193 199 187 199 197 198 194 193 196 196 193 195 204 202 193 192 194 194
230 227 224 214 208 200 199 202 198 191 194 196 198 196 194 196 194 188 205 209 228 240 233 207 203 199 190 194 209 209 206 206
212 207 201 200 202 208 194 198 202 199 200 201 203 202 196 210 243 241 254 232 193 200 199 189 184 196 209 205 209 203 215 216
201 203 208 202 200 201 191 195 199 196 226 232 230 247 242 229 228 214 208 202 194 185 179 193 192 198 203 201 204 216 246 272
194 198 186 200 194 198 195 212 219 219 217 235 241 249 242 218 211 203 195 193 193 200 194 195 196 204 198 207 259 263 264 266
193 195 193 192 200 214 214 217 218 212 212 215 218 216 208 196 194 191 194 196 192 183 196 199 218 230 248 261 255 249 250 284
194 191 209 218 206 204 205 200 196 197 202 204 198 201 194 188 193 189 187 185 184 202 224 231 244 258 257 260 231 249 293 299
196 209 200 200 201 201 209 210 216 211 207 195 191 187 196 185 185 186 186 203 217 228 237 252 253 245 273 232 291 300 278 380
200 199 198 195 209 207 212 217 217 201 200 200 192 185 187 198 197 187 206 225 226 244 259 251 250 212 265 278 267 288 353 439
198 194 191 191 191 208 209 219 224 194 202 196 191 198 193 198 211 225 211 223 233 251 257 236 204 257 283 285 332 354 413 448
193 191 192 195 200 202 206 215 195 216 196 191 194 193 201 208 211 213 232 229 246 257 264 232 235 260 255 272 364 371 420 423
190 193 194 191 201 209 209 222 223 199 192 193 189 207 206 204 221 229 227 238 252 259 254 237 261 291 278 335 345 429 431 399
198 193 189 196 201 210 219 223 212 199 189 189 200 204 212 210 214 227 241 261 255 260 227 255 287 272 325 334 411 435 410 383
190 190 191 199 211 213 220 206 199 197 190 195 206 196 216 223 226 237 254 252 260 263 253 264 283 266 339 368 447 426 393 368
191 195 195 197 205 216 212 195 200 201 196 204 212 221 223 231 232 252 256 251 267 270 260 288 266 320 337 380 438 407 380 353